map of LVI home
LVI - Airport
Location
City:  Livingstone, Southern, Zambia
Near (Alt.):Maramba
Name:Harry Mwanga Nkumbula International Airport
Old (Alt.):Livingstone Airport
ICAO:FLHN
IATA:LVI

Details
Type:Airport (Aerodrome, Airfield)
Use:Public/Civil, Military, International (customs port of entry)
Latitude:1749'18"S (-17.821755)
Longitude:2549'22"E (25.822692)
Elevation:3302 ft (1006 m)
Variation:7.26W (WMM2015 magnetic declination)
0.03 annual change
Runways:2
Longest:7520 × 197 ft (2292 × 60 m), paved

Time
Time Zone:UTC+2
Local Time:

Weather
METAR:FLHN 280700Z 10007KT 9999 SCT009 BKN090 19/17 Q1026
TAF:FLHN 272200Z 2800/2906 11010KT 9999 SCT013 SCT030TCU
BECMG 2804/2808 09005G15KT 9999 SCT015
BECMG 2812/2816 09010KT 9999 SCT030
BECMG
FM281800 10010KT CAVOK

Related Locations
Nearby:
Farthest:ITO: 12290 mi / 19779 km
Hilo [Hilo Intl], Hawaii, HI, US

Find:

   beyond  
but within

Other Information
Maps:
NOTAMs:
Links:
Sources:

  
flag of Zambia   

Sectional Chart

Flight Planning
at skyvector.com

Satellite Image

Google Maps Satellite view

 

Copyright © 2004-2017 Karl L. Swartz. All rights reserved.
The Great Circle Mapper name and logo are trademarks of the Great Circle Mapper.
All other trademarks mentioned herein belong to their respective owners.
Please see credits for attibutions and further copyright information.

  Follow gcmap on Facebook Follow gcmap on Twitter Follow gcmap on Google+ GCmap on LinkedIn

hCard Microformat

Geo Microformat